Regional Weather Roundup
Issued by NWS

Home | Current Version | Previous Version | Graphics & Text | Print | Product List | Glossary On
Versions: 1 2 3 4 5 6 7 8 9 10 11 12 13 14 15 16 17 18 19 20 21 22 23 24 25 26 27 28 29 30 31 32 33 34 35 36 37 38 39 40 41 42 43 44 45 46 47 48 49 50
000
ASUS43 KDTX 280501
RWRMI
MICHIGAN HOURLY REGIONAL WEATHER ROUNDUP
NATIONAL WEATHER SERVICE DETROIT/PONTIAC MI
1200 AM EST WED JAN 28 2015

NOTE: "FAIR" INDICATES FEW OR NO CLOUDS BELOW 12,000 FEET WITH NO
SIGNIFICANT WEATHER AND/OR OBSTRUCTION TO VISIBILITY.

MIZ047>049-052>055-059>063-066>070-074>076-081>083-280600-
SOUTHEAST LOWER MICHIGAN

CITY           SKY/WX    TMP DP  RH WIND       PRES   REMARKS
ADRIAN         CLEAR     13   8  81 N3        30.24R
ALMA           CLEAR      7   4  87 W3        30.26R
ANN ARBOR      CLEAR     11   7  84 CALM      30.23R
BAD AXE        CLEAR      6   3  88 CALM      30.22S
CARO           CLEAR      8   5  89 CALM      30.24R
DETROIT CITY   CLEAR     19   9  65 NW7       30.22R WCI  10
DETROIT        CLEAR     15  10  80 W6        30.24R WCI   6
FLINT          CLEAR     12   7  80 W5        30.24R WCI   4
GROSSE ILE     CLEAR     16  10  79 NW6       30.22R WCI   7
HILLSDALE      PTCLDY    10   8  91 CALM      30.20S
HOWELL         CLEAR     10   6  87 CALM      30.22R

CITY           SKY/WX    TMP DP  RH WIND       PRES   REMARKS
JACKSON        CLEAR     10   6  84 CALM      30.23R
LAMBERTVILLE   CLEAR     18  10  73 CALM      30.24R
LANSING        CLEAR     13   7  77 CALM      30.25R
LAPEER         FAIR       4   2  89 CALM      30.22R
MASON          CLEAR     11   8  88 CALM      30.24R
MONROE         CLEAR     14  10  85 W5        30.22R WCI   6
MT. CLEMENS    CLEAR     15   9  76 NW7       30.20R WCI   5
PONTIAC        CLEAR     11   8  88 NW5       30.20R WCI   3
PORT HOPE        N/A     23  10  57 N5        30.21R WCI  17
PORT HURON     CLEAR      9   5  85 CALM      30.21R
TRI CITIES     CLEAR     13   9  84 N5        30.26R WCI   5
TROY           CLEAR     19  10  69 NW5       30.24R WCI  12
SAGINAW HB     CLEAR     14  12  92 NW3       30.26R
$$
MIZ043>046-050>051-056>058-064>065-071>073-077>080-280600-
SOUTHWEST LOWER MICHIGAN

CITY           SKY/WX    TMP DP  RH WIND       PRES   REMARKS
BATTLE CREEK   CLEAR     13   7  77 CALM      30.24R
BENTON HARBOR  CLEAR     14  11  87 CALM      30.26R
BIG RAPIDS     PTCLDY     9   6  86 CALM      30.23S
COLDWATER      PTCLDY    11   7  85 CALM      30.23R
FREMONT        FAIR      14  10  84 CALM      30.24S
HOLLAND        CLEAR     16  10  77 CALM      30.26R
GRAND RAPIDS   CLEAR     14   8  77 E3        30.25R
IONIA          FAIR      15   8  72 W5        30.25R WCI   8
KALAMAZOO      CLEAR     13   8  81 CALM      30.25R
LUDINGTON      PTCLDY    13   9  82 CALM      30.24F
MARSHALL       CLEAR     10   7  87 CALM      30.23R
MOUNT PLEASANT CLEAR      8   4  83 CALM      30.25R
MUSKEGON       CLEAR     16  10  77 CALM      30.25S
SOUTH HAVEN    PTCLDY    15  11  85 CALM      30.26R
$$
MIZ016>042-280600-
NORTHERN LOWER MICHIGAN

CITY           SKY/WX    TMP DP  RH WIND       PRES   REMARKS
ALPENA         PTCLDY    -1  -7  75 CALM      30.25S
BEAVER ISLAND  PTCLDY     3  -2  77 CALM      30.22F
BELLAIRE       PTCLDY     4   2  88 CALM      30.25F
CADILLAC       MOCLDY     3  -1  83 CALM      30.19F
CHARLEVOIX     PTCLDY     6   2  86 E3        30.26F
FRANKFORT      PTCLDY    11   8  90 CALM      30.23F
GAYLORD        PTCLDY    -1  -5  82 CALM      30.19F
GRAYLING       CLEAR     -4  -8  82 CALM      30.23S
HARBOR SPRINGS PTCLDY     4   0  83 CALM      30.23F
HOUGHTON LAKE  PTCLDY     2  -2  83 CALM      30.23R
MANISTEE       PTCLDY    10   7  85 E5        30.23F WCI   2
OSCODA         PTCLDY     7   1  78 CALM      30.24R
PELLSTON       MOCLDY    -2  -6  83 CALM      30.24F
ROGERS CITY    PTCLDY     4   0  86 SW6       30.26R WCI  -7
TRAVERSE CITY  PTCLDY     8   4  83 CALM      30.23F
$$
MIZ007>008-015-280600-
EASTERN UPPER MICHIGAN

CITY           SKY/WX    TMP DP  RH WIND       PRES   REMARKS
KINROSS        MOCLDY     1  -6  71 CALM      30.22F
MACKINAC ISLAN PTCLDY     7  -2  66 SW6       30.22F WCI  -3
NEWBERRY       MOCLDY    -1  -3  91 S3        30.19F
S. S. MARIE    PTCLDY     5  -4  66 CALM      30.22F
MUNISING         N/A     13   8  81 S8        30.23R WCI   2
$$
MIZ004>006-011>014-085-280600-
CENTRAL UPPER MICHIGAN

CITY           SKY/WX    TMP DP  RH WIND       PRES   REMARKS
MANISTIQUE     PTCLDY     6   4  91 CALM      30.21S
ESCANABA       CLOUDY    19  16  86 SW5       30.24R WCI  13
MENOMINEE      MOCLDY    18  16  93 CALM      30.24R
SAWYER-GWINN   CLOUDY    21  17  84 SW5       30.17S WCI  14
$$
MIZ001>003-009>011-084-280600-
WESTERN UPPER MICHIGAN

CITY           SKY/WX    TMP DP  RH WIND       PRES   REMARKS
IRON MOUNTAIN  CLOUDY    22  17  81 S5        30.17R WCI  16
HOUGHTON       CLOUDY    24  18  77 SW5       30.15S WCI  18
COPPER HARBOR    N/A     26  19  74 SW6       30.17F WCI  19
IRONWOOD       CLOUDY    25  19  80 SW7       30.12S WCI  17
$$

ABBREVIATIONS USED IN REMARKS
   TC - TEMPERATURE IN CELSIUS
  WCI - WIND CHILL INDEX
   HX - HEAT INDEX
  VSB - VISIBILITY




USA.gov is the U.S. government's official web portal to all federal, state and local government web resources and services.